Location: Claflin County Park
(44.8478°N, 87.5507°W)
Time: 00:01:59
(UTC+00:00)

Cosmos 2058 Rocket - Visible Passes

Search period start: 14 March 2026 00:00
Search period end: 24 March 2026 00:00
Orbit: 605 x 631 km, 82.5° (Epoch: 13 March)

Date Brightness Start Highest point End Pass type
(mag) Time Alt. Az. Time Alt. Az. Time Alt. Az.
14 Mar 6.5 00:38:47 10° NW 00:41:28 16° W 00:44:07 10° WSW visible
14 Mar 5.5 11:33:04 10° SSE 11:36:54 29° E 11:40:45 10° NNE visible
17 Mar 6.3 10:47:28 10° SE 10:50:21 17° E 10:53:17 10° NE visible
18 Mar 5.3 11:03:17 10° SSE 11:07:09 30° E 11:11:02 10° NNE visible
19 Mar 4.0 11:19:42 10° S 11:24:01 54° E 11:28:23 10° NNE visible
21 Mar 6.1 10:17:38 10° SE 10:20:36 18° E 10:23:35 10° NE visible
22 Mar 5.2 10:33:29 10° SSE 10:37:22 31° E 10:41:18 10° NNE visible
23 Mar 3.9 10:49:55 10° S 10:54:15 56° E 10:58:39 10° NNE visible
